Waarnemingen

Advertentie
Mijn weer
Bierset/Liege, België (6478): temperatuur & dauwpunt: 07.07.2020 21:00:00 - 13.07.2020 21:00:00 (CEST)Bierset/Liege, België (6478): windsnelheid & windstoten: 07.07.2020 21:00:00 - 13.07.2020 21:00:00 (CEST)Bierset/Liege, België (6478): windrichting: 07.07.2020 21:00:00 - 13.07.2020 21:00:00 (CEST)Bierset/Liege, België (6478): luchtdruk: 07.07.2020 21:00:00 - 13.07.2020 21:00:00 (CEST)Bierset/Liege, België (6478): zicht: 07.07.2020 21:00:00 - 13.07.2020 21:00:00 (CEST)
Datum & Tijd tt [°C] td [°C] ff [km/u] ff [kn] fx [km/u] fx [kn] dd ppp [hPa] vv [km]
13.07.2020 21:00:00 21,0 9,0 8 4 - - N - 10
13.07.2020 20:00:00 22,6 7,1 11 6 - - NNW 1019,6 10
13.07.2020 19:00:00 23,2 7,9 11 6 22 12 NW 1019,9 10
13.07.2020 18:00:00 23,3 8,2 9 5 22 12 NW 1020,3 10
13.07.2020 17:00:00 23,7 8,9 9 5 - - NW 1020,8 10
13.07.2020 16:00:00 23,1 7,9 5 3 22 12 - 1021,4 10
13.07.2020 15:00:00 23,0 7,4 11 6 22 12 W 1021,9 10
13.07.2020 14:00:00 23,0 8,3 5 3 - - - 1022,6 10
13.07.2020 13:00:00 22,1 8,0 5 3 14 8 - 1023,2 10
13.07.2020 12:00:00 21,1 8,5 9 5 22 12 NNO 1023,8 10
13.07.2020 11:00:00 20,1 10,3 11 6 - - N 1024,1 30
13.07.2020 10:00:00 18,0 10,3 5 3 11 6 N 1024,5 10
13.07.2020 09:00:00 15,0 10,5 2 1 11 6 - 1025,0 10
13.07.2020 08:00:00 13,2 9,6 4 2 - - OZO 1025,1 10
13.07.2020 07:00:00 11,1 8,5 4 2 7 4 NNO 1025,1 10
13.07.2020 06:00:00 10,3 8,2 2 1 7 4 - 1025,2 10
13.07.2020 05:00:00 11,5 8,3 4 2 - - NO 1025,2 10
13.07.2020 04:00:00 12,1 8,5 4 2 11 6 NNO 1025,6 10
13.07.2020 03:00:00 12,6 8,2 5 3 25 14 NNO 1026,0 10
13.07.2020 02:00:00 14,1 8,3 9 5 - - NO 1026,1 10
13.07.2020 01:00:00 13,3 7,7 8 4 11 6 NNO 1026,4 10
13.07.2020 00:00:00 14,4 7,5 8 4 11 6 NNO 1026,4 10
12.07.2020 23:00:00 15,0 7,6 8 4 - - NNO 1026,5 10
12.07.2020 22:00:00 17,0 7,5 8 4 14 8 NNO 1026,2 10
12.07.2020 21:00:00 18,6 7,5 11 6 22 12 NNO 1026,0 10
12.07.2020 20:00:00 20,0 7,9 15 8 - - NNO 1025,9 10
12.07.2020 19:00:00 19,7 7,2 15 8 29 16 NO 1026,4 10
12.07.2020 18:00:00 20,8 7,7 13 7 25 14 NNO 1026,6 10
12.07.2020 17:00:00 19,9 7,2 11 6 - - NNO 1026,8 10
12.07.2020 16:00:00 20,2 6,9 13 7 25 14 NNO 1027,3 10
12.07.2020 15:00:00 19,5 7,1 13 7 29 16 NNO 1027,6 10
12.07.2020 14:00:00 19,8 8,0 13 7 - - - 1027,9 10
12.07.2020 13:00:00 17,8 7,9 9 5 22 12 NNO 1028,4 10
12.07.2020 12:00:00 17,3 8,5 9 5 25 14 NNO 1028,6 10
12.07.2020 11:00:00 16,5 10,0 13 7 - - ONO 1028,6 10
12.07.2020 10:00:00 15,4 9,9 13 7 22 12 NO 1028,8 10
12.07.2020 09:00:00 14,4 10,5 8 4 14 8 NNO 1028,6 10
12.07.2020 08:00:00 12,5 10,8 9 5 - - NO 1028,3 10
12.07.2020 07:00:00 10,1 9,5 2 1 4 2 N 1028,1 10
12.07.2020 06:00:00 9,5 8,9 2 1 4 2 NNW 1027,9 10
12.07.2020 05:00:00 10,2 9,2 2 1 - - - 1027,6 10
12.07.2020 04:00:00 10,3 9,2 5 3 11 6 N 1027,4 10
12.07.2020 03:00:00 10,9 9,5 8 4 7 4 NNW 1027,6 10
12.07.2020 02:00:00 12,4 10,1 4 2 - - NNW 1027,5 10
12.07.2020 01:00:00 12,7 10,0 5 3 7 4 NNW 1027,6 10
12.07.2020 00:00:00 13,4 9,7 4 2 7 4 N 1027,3 10
11.07.2020 23:00:00 14,0 9,5 5 3 - - N 1027,1 10
11.07.2020 22:00:00 14,9 10,0 5 3 18 10 NNO 1026,6 10
11.07.2020 21:00:00 16,0 9,5 13 7 25 14 NO 1026,3 10
11.07.2020 20:00:00 16,9 9,8 16 9 - - NNO 1026,0 10
11.07.2020 19:00:00 17,6 9,4 9 5 29 16 N 1025,5 10
11.07.2020 18:00:00 18,2 9,5 22 12 32 18 N 1025,4 10
11.07.2020 17:00:00 18,3 8,6 11 6 - - WNW 1025,2 10
11.07.2020 16:00:00 18,2 8,0 8 4 18 10 WNW 1025,0 10
11.07.2020 15:00:00 18,4 7,9 9 5 22 12 W 1025,2 10
11.07.2020 14:00:00 18,1 8,2 9 5 - - W 1025,2 10
11.07.2020 13:00:00 18,4 8,6 5 3 18 10 - 1025,0 10
11.07.2020 12:00:00 16,5 8,4 5 3 18 10 - 1025,2 10
11.07.2020 11:00:00 14,8 8,2 9 5 - - NW 1025,1 10
11.07.2020 10:00:00 14,5 8,2 8 4 14 8 WZW 1024,8 10
11.07.2020 09:00:00 13,1 8,6 4 2 7 4 - 1024,5 10
11.07.2020 08:00:00 12,2 9,7 4 2 - - - 1024,1 10
11.07.2020 07:00:00 10,1 8,7 5 3 7 4 WZW 1023,7 10
11.07.2020 06:00:00 9,7 8,2 4 2 7 4 WZW 1023,3 10
11.07.2020 05:00:00 9,8 8,0 2 1 - - - 1022,9 10
11.07.2020 04:00:00 10,2 8,0 5 3 11 6 WNW 1022,6 10
11.07.2020 03:00:00 10,0 8,2 5 3 7 4 WNW 1022,5 10
11.07.2020 02:00:00 11,0 8,4 5 3 - - WNW 1022,2 10
11.07.2020 01:00:00 12,1 8,5 5 3 11 6 WNW 1021,5 10
11.07.2020 00:00:00 12,4 8,4 8 4 14 8 NW 1021,1 10
10.07.2020 23:00:00 13,1 8,0 9 5 - - NNW 1020,1 10
10.07.2020 22:00:00 14,2 8,0 11 6 25 14 NNW 1019,3 10
10.07.2020 21:00:00 16,5 8,6 9 5 22 12 NNW 1018,7 10
10.07.2020 20:00:00 16,5 9,3 13 7 - - NNW 1018,3 10
10.07.2020 19:00:00 16,9 10,3 16 9 25 14 N 1017,8 10
10.07.2020 18:00:00 17,6 10,7 14 8 29 16 NW 1017,2 18
10.07.2020 17:00:00 17,6 10,4 18 10 - - NNW 1016,9 10
10.07.2020 16:00:00 17,2 11,5 21 11 36 19 NNW 1016,4 10
10.07.2020 15:00:00 19,7 11,1 18 10 32 18 WNW 1015,2 18
10.07.2020 14:00:00 18,7 11,9 22 12 - - NW 1014,6 10
10.07.2020 13:00:00 18,1 12,9 21 11 36 19 NW 1013,9 10
10.07.2020 12:00:00 17,3 13,7 21 11 36 19 WNW 1012,9 10
10.07.2020 11:00:00 18,0 15,9 21 11 - - WZW 1011,8 10
10.07.2020 10:00:00 16,0 15,2 22 12 32 18 WZW 1011,5 10
10.07.2020 09:00:00 15,7 13,9 24 13 36 19 ZW 1010,8 9
10.07.2020 08:00:00 15,8 13,5 24 13 - - ZW 1010,4 10
10.07.2020 07:00:00 16,2 13,3 21 11 36 19 WZW 1010,3 10
10.07.2020 06:00:00 16,4 13,4 21 11 36 19 WZW 1010,2 10
10.07.2020 05:00:00 17,2 13,5 21 11 - - WZW 1010,1 10
10.07.2020 04:00:00 17,3 14,0 16 9 25 14 ZW 1010,6 10
10.07.2020 03:00:00 17,2 14,0 16 9 22 12 WZW 1011,0 10
10.07.2020 02:00:00 17,7 14,9 15 8 - - W 1011,6 10
10.07.2020 01:00:00 18,4 15,0 2 1 14 8 - 1011,7 10
10.07.2020 00:00:00 18,9 15,8 5 3 11 6 NW 1011,5 10
09.07.2020 23:00:00 20,1 15,3 5 3 - - ONO 1011,6 10
09.07.2020 22:00:00 20,0 15,2 5 3 11 6 N 1011,4 10
09.07.2020 21:00:00 21,8 15,5 8 4 11 6 N 1011,5 10
09.07.2020 20:00:00 23,1 15,5 8 4 - - NW 1011,9 10
09.07.2020 19:00:00 22,4 15,2 9 5 25 14 NW 1012,2 10
09.07.2020 18:00:00 24,2 13,8 13 7 29 16 W 1012,5 10
09.07.2020 17:00:00 23,1 13,7 21 11 - - WZW 1013,3 10
09.07.2020 16:00:00 21,9 14,1 18 10 43 23 W 1013,9 10
09.07.2020 15:00:00 22,6 13,2 31 17 40 21 WZW 1013,9 10
09.07.2020 14:00:00 21,9 14,1 24 13 - - WZW 1014,2 10
09.07.2020 13:00:00 20,8 14,3 24 13 36 19 WZW 1014,5 10
09.07.2020 12:00:00 19,6 14,4 26 14 40 21 WZW 1014,4 10
09.07.2020 11:00:00 19,4 16,1 21 11 - - WZW 1014,7 10
09.07.2020 10:00:00 17,9 15,2 24 13 32 18 WZW 1014,8 10
09.07.2020 09:00:00 17,6 15,5 22 12 32 18 ZW 1014,7 10
09.07.2020 08:00:00 16,4 15,5 16 9 - - ZW 1015,0 10
09.07.2020 07:00:00 16,2 15,3 18 10 29 16 ZW 1015,1 10
09.07.2020 06:00:00 15,8 15,0 18 10 25 14 ZW 1015,5 10
09.07.2020 05:00:00 15,9 14,8 15 8 - - ZW 1015,5 10
09.07.2020 04:00:00 16,0 15,1 16 9 25 14 WZW 1015,6 10
09.07.2020 03:00:00 15,9 15,0 15 8 25 14 ZW 1015,5 10
09.07.2020 02:00:00 15,7 15,1 15 8 - - WZW 1015,9 2,0
09.07.2020 01:00:00 15,9 14,9 18 10 25 14 WZW 1016,1 10
09.07.2020 00:00:00 16,0 15,1 15 8 25 14 WZW 1016,4 10
08.07.2020 23:00:00 15,9 15,1 13 7 - - WZW 1016,6 10
08.07.2020 22:00:00 15,9 15,2 13 7 22 12 WZW 1016,6 2,0
08.07.2020 21:00:00 16,0 15,3 11 6 22 12 WZW 1016,5 2,8
08.07.2020 20:00:00 16,0 15,3 15 8 - - W 1016,4 2,2
08.07.2020 19:00:00 16,1 15,4 15 8 29 16 W 1016,4 3,4
08.07.2020 18:00:00 16,3 15,3 15 8 25 14 ZW 1016,6 5
08.07.2020 17:00:00 16,0 14,8 16 9 - - ZW 1016,9 6
08.07.2020 16:00:00 15,4 14,4 16 9 25 14 ZW 1017,0 10
08.07.2020 15:00:00 14,8 14,4 16 9 25 14 ZW 1017,0 2,5
08.07.2020 14:00:00 14,6 14,1 18 10 - - ZW 1016,9 3,5
08.07.2020 13:00:00 14,1 13,6 16 9 36 19 ZW 1016,8 4,0
08.07.2020 12:00:00 13,6 13,2 16 9 32 18 ZZW 1016,7 5
08.07.2020 11:00:00 12,8 12,5 15 8 - - ZZW 1016,9 3,0
08.07.2020 10:00:00 12,2 11,6 13 7 29 16 ZZW 1016,7 8
08.07.2020 09:00:00 11,4 10,9 15 8 25 14 ZZW 1016,9 3,4
08.07.2020 08:00:00 11,1 10,8 9 5 - - Z 1016,9 3,0
08.07.2020 07:00:00 10,8 10,3 8 4 14 8 W 1017,1 2,7
08.07.2020 06:00:00 11,9 10,3 8 4 11 6 W 1016,9 10
08.07.2020 05:00:00 12,2 10,0 5 3 - - W 1016,9 10
08.07.2020 04:00:00 12,7 9,9 11 6 18 10 W 1017,2 10
08.07.2020 03:00:00 13,1 10,9 8 4 18 10 W 1017,8 10
08.07.2020 02:00:00 14,5 10,2 15 8 - - WZW 1017,8 10
08.07.2020 01:00:00 15,7 9,5 11 6 29 16 WZW 1017,7 10
08.07.2020 00:00:00 16,5 10,6 13 7 29 16 W 1018,0 10
07.07.2020 23:00:00 16,9 9,1 4 2 - - NNW 1017,8 30
07.07.2020 22:00:00 17,1 9,4 4 2 11 6 NO 1018,0 10
07.07.2020 21:00:00 17,8 9,4 8 4 11 6 N 1018,0 10

tt = temperatuur
td = dauwpunt
ff = windsnelheid
fx = windstoten
dd = windrichting
ppp = luchtdruk
vv = zicht

Weerstations in de omgeving